Terminal Aerodrome Forecast
Issued by NWS

Home | Current Version | Previous Version | Text Only | Print | Product List | Glossary On
Versions: 1 2 3 4 5 6 7 8 9 10 11 12 13 14 15 16
602
FTUS45 KBOI 221140
TAFJER
TAF
KJER 221140Z 2212/2312 07007KT P6SM BKN100
     FM222000 25006KT P6SM VCSH SCT070 BKN150
     FM230400 14007KT P6SM BKN100=

USA.gov is the U.S. government's official web portal to all federal, state and local government web resources and services.